Погода в Чурапче

Погода в Чурапче : погода сейчас, прогноз погоды и архив. Всё, что Вы хотите узнать о погоде в Чурапче!

Хотите узнать прогноз погоды в Чурапче? Тогда Вам сюда: Погода в Чурапче

Поиск расширенной информации на нашем сайте:

Другие новости

Новости СМИ2

Главная страница сайта

Новости сайта

03.07.2017

Напоминаем, что на нашем специализированном сайте Метеоцентр.Азия вы можете получить высокодетализированные автоматические прогнозы погоды по пунктам России, СНГ и мира в авиационном формате (включающие направление и скорость ветра, видимость, явления погоды, количество и форму облачности, нижнюю и верхнюю границу облачности).


Погода в Чурапче - сегодня

Время (UTC), дата Ветер
(°,м/с) 
Видим.   Явления Облачность Т
(°С)
Тd
(°С)
f(%) Тe
(°С)
Pmin
(гПа)
dP
(гПа)
Po
(мм)
O2
(г/м3)
Тmin Tmax R s Состояние
почвы
15 16.01.18 тихо ()   10 км    4/0 верхняя 
[Ci fib]
-42.7 -46.3 68 -43  1017  0.2  743  357           
18 16.01.18 080 (В) 10 км    3/0 верхняя 
[Ci fib]
-44.1 -48 65 -45  1017.9  0.7  744  359           
21 16.01.18 тихо ()   10 км    8/0 верхняя 
[Ci fib]
-43.7 -47.6 65 -44  1018.4  0.6  744  359           
00 17.01.18 060 (СВ) 4000 м  дымка  8/0 верхняя 
[Ci fib]
-42.2 -46.1 65 -44  1018.9  0.6  745  357  -44.5      25  равномерный
сухой снег
100% 
03 17.01.18 070 (В) 2000 м  дымка  4/0 верхняя 
[Ci fib]
-41.8 -45.6 66 -43  1019  0.2  745  356           
06 17.01.18 170 (Ю) 4000 м  дымка  3/0 верхняя 
[Ci fib]
-40.2 -44 67 -41  1018.6  -0.2  745  354           
09 17.01.18 170 (Ю) 4000 м  дымка  4/0 верхняя 
[Ci fib]
-42.3 -46.1 66 -44  1019.9  745  357           
12 17.01.18 тихо ()   4000 м  дымка  3/0 верхняя 
[Ci fib]
-44.2 -48.1 65 -44  1020.1  745  360    -40.2       
15 17.01.18 тихо ()   4000 м  дымка  3/0 верхняя 
[Ci fib]
-44.2 -48.1 65 -44  1020.1  745  360    -40.2       
18 17.01.18 270 (З) 4000 м  дымка  3/0 верхняя 
[Ci fib]
-46.8 -50.6 65 -48  1020.8  0.1  746  365           
21 17.01.18 тихо ()   4000 м  дымка  3/0 верхняя 
[Ci fib]
-47.4 -51.3 65 -47  1020.9  746  366           
00 18.01.18 тихо ()   4000 м  дымка  3/0 верхняя 
[Ci fib]
-48.3 -52 65 -48  1020.9  -0.1  746  367  -48.5      25  равномерный
сухой снег
100% 
03 18.01.18 тихо ()   4000 м  дымка  3/0 верхняя 
[Ci fib]
-46.3 -50.1 66 -46  1020.9  0.2  746  364           
06 18.01.18 тихо ()   0200 м  туман  ясно 
-44.7 -48.6 65 -45  1020.8  0.1  746  361           
09 18.01.18 тихо ()   0500 м  туман  4/0 верхняя 
[Ci fib]
-45 -48.9 65 -45  1021.3  0.5  746  362           
12 18.01.18 тихо ()   0500 м  туман  3/0 верхняя 
[Ci fib]
-45.9 -49.8 64 -46  1022.4  0.9  747  364    -44.7       
15 18.01.18 тихо ()   0500 м  туман  3/0 верхняя 
[Ci fib]
-46.7 -50.5 65 -47  1023.1  0.6  747  365           
18 18.01.18 тихо ()   0500 м  туман  3/0 верхняя 
[Ci fib]
-47.4 -51.1 66 -47  1024  0.8  748  367           
21 18.01.18 тихо ()   2000 м  дымка{туман}  3/0 верхняя 
[Ci fib]
-47.3 -51.2 64 -47  1025.1  1.1  749  367           
00 19.01.18 тихо ()   2000 м  дымка{туман}  3/0 верхняя 
[Ci fib]
-47.7 -51.6 65 -48  1026.1  0.9  749  368  -47.8      25  равномерный
сухой снег
100% 
03 19.01.18 270 (З) 4000 м  дымка  3/0 верхняя 
[Ci fib]
-45.5 -49.4 65 -47  1026.6  0.8  750  365           
06 19.01.18 тихо ()   4000 м  дымка  3/0 верхняя 
[Ci fib]
-44.3 -48.2 65 -44  1027.3  0.8  751  363           
09 19.01.18 тихо ()   10 км    4/0 верхняя 
[Ci fib]
-44.6 -48.2 67 -45  1028.7  1.3  752  364           
12 19.01.18 тихо ()   10 км    4/0 верхняя 
[Ci fib]
-45.9 -50.7 58 -46  1030.1  1.2  752  367    -44.3       
15 19.01.18 230 (ЮЗ) 10 км    4/0 верхняя 
[Ci fib]
-43.7 -47.3 67 -49  1030.7  0.9  753  363           
Время (UTC), дата Ветер
(°,м/с) 
Видим.   Явления Облачность Т
(°С)
Тd
(°С)
f(%) Тe
(°С)
Pmin
(гПа)
dP
(гПа)
Po
(мм)
O2
(г/м3)
Тmin Tmax R s Состояние
почвы

Для получения пояснительной информации подведите курсор к названию столбца.

ПОГОДА в Чурапче - архив

Всё, что Вы хотите узнать о погоде в Чурапче - удобно и подробно!

Выберите нужную дату (начиная с 1 января 2015* года) и нажмите кнопку "Найти".
Будут отображены архивные сводки погоды по пункту Чурапча, начиная с указанной даты.


Отображать данные в формате CSV (для использования в таблицах Excel)


Внимание! Наш архив погоды предназначен исключительно для личного некоммерческого использования в познавательных целях. Если Вам необходимы официальные справки о состоянии погоды (для производственных, юридических, коммерческих и т.п. целей), обращайтесь в органы Росгидромета.

*Примечание: данная дата относится к архиву по метеостанциям СССР (Россия, СНГ, Балтия).
Архив по метеостанциям Зарубежной Европы и Азии (кроме Китая) хранится 10 дней, по другим регионам земного шара (Китай, Африка, Америка, Австралия, Океания) - 1 день.

Чурапча - район местоположения метеостанции


Название, широта, долгота, высота метеостанции:
Чурапча 62°ш. 132.6°д. 186 м над ур. моря [Российская Федерация]

Дополнительная информация

В oтличие oт бoльшинства пoгoдных сайтoв мы публикуем пoдрoбную метеoинфoрмацию в детальнoм прoфессиoнальнoм фoрмате.

Характеристики температуры и влажнoсти вoздуха измеряются на высoте 2 м в тени вдали oт зданий и деревьев.
Скoрoсть ветра измеряется на высoте 10 м (на урoвне рoста челoвека скoрoсть ветра ниже в 1.5-2 раза). Если метеoстанция нахoдится в гoрoде или в лесу, тo скoрoсть ветра занижена на 2-4 м/с пo сравнению с oткрытым местoм. Скoрoсть ветра над акватoриями крупных рек и oзёр, а также на вершинах хoлмoв на 2-5 м/с выше, чем в oбычных услoвиях.
Атмoсфернoе давление в разных тoчках местнoсти мoжет значительнo oтличаться oт давления на метеoстанции, в зависимoсти oт услoвий рельефа (при пoдъёме на 10 м давление пoнижается примернo на 1 мм рт.ст.).